[[{"header":{"parameterUnit":"m.s-1","parameterCategory":1,"la1":30.2991,"la2":30.254,"lo1":-89.0895,"lo2":-89.0444,"dy":0.0017,"dx":0.0017,"nx":28,"ny":28,"refTime":"2025-06-19T03:00:00:Z","depth":0,"parameterNumber":2,"parameterNumberName":"U-component_of_WINDS"},"data":[0,0,0,0,0,0,0,0,0,0,0,0,0,0,0,0,0,0,0,0,0,0,0,0,0,0,0,0,0,0,0,0,0,0,0,0,0,0,0,0,0,0,0,0,0,0,0,0,0,0,0,0,0,0,0,0,0,0,2.3658,2.3658,0,2.3732,2.3733,2.3734,2.3767,2.3767,2.3767,2.3767,2.3848,2.385,2.3853,0,0,0,0,0,0,0,0,0,0,0,0,0,2.3549,2.3551,2.3657,2.3658,2.3659,2.3732,2.3733,2.3734,2.3767,2.3767,2.3767,2.3767,2.3847,2.385,2.3853,0,0,0,0,0,0,0,0,0,0,0,0,0,2.3607,2.3551,2.3657,2.3685,2.3688,2.3732,2.3733,2.3734,2.3768,2.3767,2.3767,2.3767,2.3847,2.385,2.3853,2.3877,0,0,2.3863,2.3865,0,0,0,0,0,0,0,0,2.3604,2.3611,2.368,2.3683,2.3687,2.374,2.3724,2.3782,2.3768,2.3737,2.3767,2.3767,2.3813,2.3819,2.3833,2.388,2.3884,2.3864,2.3866,2.3867,2.3868,0,0,0,0,0,0,0,2.36,2.3608,2.3687,2.3681,2.3685,2.3695,2.3703,2.3735,2.3775,2.374,2.3743,2.3751,2.3815,2.383,2.3835,2.3885,2.3864,2.3867,2.3869,2.387,2.3955,2.3956,0,0,0,0,0,0,2.359,2.3604,2.3685,2.3689,2.3644,2.3697,2.3706,2.3723,2.3775,2.3782,2.3751,2.3752,2.3824,2.3831,2.3838,2.3869,2.3867,2.387,2.3872,2.3955,2.3955,2.3956,0,0,0,0,0,0,2.3588,2.3597,2.3682,2.3648,2.3659,2.3699,2.3718,2.3725,2.374,2.3783,2.3791,2.3759,2.3824,2.3834,2.3866,2.3872,2.3872,2.3875,2.3955,2.3955,2.3956,2.3931,0,0,0,0,0,0,2.3585,2.3596,2.3604,2.3647,2.3661,2.3707,2.3718,2.3726,2.3745,2.3748,2.3792,2.38,2.3825,2.3861,2.387,2.3877,2.3877,2.3954,2.3955,2.3955,2.3931,2.393,2.3929,0,0,0,0,0,2.3581,2.3596,2.3605,2.3614,2.3672,2.3707,2.3715,2.3742,2.3745,2.3755,2.3782,2.3798,2.387,2.3864,2.3874,2.3883,2.3954,2.3955,2.3955,2.3932,2.393,2.3929,0,0,0,0,0,0,2.3554,2.3602,2.3612,2.3641,2.367,2.3713,2.3726,2.374,2.377,2.3771,2.3805,2.3815,2.3845,2.3867,2.386,2.3908,2.3914,2.3916,2.3892,2.3892,2.3891,2.3885,2.388,0,0,0,0,0,2.3551,2.3575,2.3616,2.3637,2.3651,2.3686,2.3702,2.3721,2.3752,2.3765,2.3795,2.3826,2.3856,2.3875,2.3905,2.3934,2.3945,2.3945,2.3944,2.3943,2.3945,2.3963,2.3964,2.3958,2.3958,2.3958,0,0,2.3546,2.3575,2.3588,2.3633,2.3657,2.3682,2.3696,2.3722,2.3741,2.377,2.3802,2.3825,2.3862,2.3894,2.3909,2.3913,2.3949,2.3944,2.3943,2.3946,2.3964,2.3964,2.3965,2.3958,2.3958,2.3958,0,0,2.355,2.3573,2.3594,2.3618,2.3654,2.3677,2.3681,2.3722,2.3738,2.3771,2.3793,2.3817,2.3867,2.3893,2.3913,2.3925,2.3942,2.3934,2.393,2.3946,2.3947,2.3947,2.3952,2.3954,2.3936,2.3936,2.3936,0,2.3539,2.3576,2.3603,2.3628,2.3647,2.3672,2.3694,2.3716,2.3761,2.3774,2.3778,2.3841,2.3868,2.3906,2.3908,2.3923,2.3931,2.3929,2.3944,2.3945,2.3946,2.3951,2.3953,2.3935,2.3935,2.3935,2.3935,0,2.3562,2.3587,2.36,2.364,2.3661,2.3684,2.3716,2.3734,2.375,2.3773,2.3806,2.3839,2.3876,2.3886,2.3904,2.3927,2.3928,2.3937,2.3944,2.3945,2.395,2.3953,2.3933,2.3934,2.3934,2.3934,0,0,2.3551,2.3605,2.3609,2.3628,2.3669,2.369,2.3715,2.3749,2.3764,2.3794,2.3816,2.3858,2.3866,2.3889,2.3909,2.3924,2.3932,2.3932,2.3933,2.3931,2.396,2.3952,2.3954,2.3942,2.3943,2.3943,2.3957,0,2.356,2.3603,2.3628,2.3662,2.3686,2.3711,2.3732,2.3761,2.3783,2.3807,2.3833,2.3861,2.3871,2.3884,2.39,2.3927,2.3938,2.3927,2.3965,2.3966,2.3954,2.3957,2.3949,2.396,2.3959,2.3959,2.396,0,2.3577,2.3604,2.364,2.3678,2.369,2.3708,2.3742,2.3765,2.3798,2.3813,2.3837,2.3857,2.3885,2.3889,2.3929,2.392,2.3937,2.3953,2.3954,2.3959,2.3963,2.3962,2.3965,2.3966,2.3963,2.3963,2.3963,0,2.3565,2.3612,2.3639,2.3654,2.37,2.3712,2.3732,2.3765,2.3784,2.3814,2.3826,2.386,2.3878,2.3904,2.3933,2.3933,2.397,2.3976,2.3984,2.3983,2.3991,2.399,2.3996,2.4001,2.4001,2.4001,2.4001,0,2.3573,2.3594,2.3634,2.3651,2.3675,2.3704,2.3728,2.375,2.3779,2.3802,2.3825,2.3846,2.3883,2.3909,2.3932,2.3961,2.3969,2.3983,2.3989,2.3981,2.3979,2.3993,2.3993,2.4002,2.4002,2.4002,2.4001,0,2.3565,2.3592,2.3624,2.3664,2.3674,2.3691,2.3726,2.3743,2.3766,2.3794,2.3803,2.3839,2.3871,2.3902,2.3945,2.396,2.399,2.3998,2.3978,2.3981,2.3988,2.3987,2.4003,2.4007,2.4009,2.4009,2.4009,0,2.3568,2.3585,2.3626,2.3642,2.3661,2.3686,2.3705,2.3735,2.3754,2.3792,2.3806,2.3839,2.3867,2.3916,2.3947,2.398,2.3989,2.3993,2.3995,2.3986,2.399,2.3989,2.3991,2.3992,2.3992,2.3992,2.3992,0,2.3571,2.3584,2.361,2.364,2.3662,2.3688,2.3715,2.3727,2.3762,2.3782,2.3814,2.3835,2.3878,2.3911,2.3947,2.3969,2.3987,2.3991,2.3994,2.3987,2.3975,2.3981,2.3976,2.399,2.3991,2.3991,2.3991,2.3991,2.3569,2.3585,2.3616,2.3644,2.3667,2.3691,2.371,2.3735,2.3761,2.3797,2.3813,2.3845,2.3878,2.3929,2.3951,2.3977,2.3982,2.3987,2.3988,2.3989,2.3987,2.397,2.3984,2.3984,2.3984,2.3984,2.3984,0,2.3574,2.3595,2.362,2.3656,2.3678,2.3691,2.3721,2.3739,2.3767,2.3795,2.3822,2.3858,2.389,2.3923,2.3957,2.3972,2.3981,2.398,2.3979,2.3984,2.3981,2.3975,2.3972,2.3972,2.3972,2.3972,2.3972,2.3972,2.3579,2.3606,2.3622,2.3661,2.3683,2.3713,2.3729,2.3752,2.3775,2.3814,2.384,2.3861,2.3892,2.3928,2.3958,2.3967,2.3979,2.3976,2.3987,2.3984,2.3985,2.3985,2.3979,2.3978,2.3978,2.3988,2.3988,2.3988]},{"header":{"parameterUnit":"m.s-1","parameterCategory":1,"la1":30.2991,"la2":30.254,"lo1":-89.0895,"lo2":-89.0444,"dy":0.0017,"dx":0.0017,"nx":28,"ny":28,"refTime":"2025-06-19T03:00:00:Z","depth":0,"parameterNumber":3,"parameterNumberName":"V-component_of_WINDS"},"data":[0,0,0,0,0,0,0,0,0,0,0,0,0,0,0,0,0,0,0,0,0,0,0,0,0,0,0,0,0,0,0,0,0,0,0,0,0,0,0,0,0,0,0,0,0,0,0,0,0,0,0,0,0,0,0,0,0,0,2.2046,2.2047,0,2.207,2.207,2.2071,2.2105,2.2106,2.2106,2.2107,2.2128,2.2128,2.2128,0,0,0,0,0,0,0,0,0,0,0,0,0,2.2026,2.2026,2.2046,2.2047,2.2047,2.207,2.207,2.2071,2.2105,2.2106,2.2106,2.2107,2.2128,2.2128,2.2128,0,0,0,0,0,0,0,0,0,0,0,0,0,2.2041,2.2026,2.2046,2.2067,2.2069,2.207,2.207,2.2071,2.2105,2.2106,2.2106,2.2107,2.2128,2.2128,2.2128,2.211,0,0,2.2128,2.2128,0,0,0,0,0,0,0,0,2.204,2.2042,2.2063,2.2065,2.2068,2.2086,2.2071,2.2084,2.2104,2.2091,2.2107,2.2108,2.2113,2.2114,2.2117,2.2111,2.2112,2.2128,2.2128,2.2128,2.2128,0,0,0,0,0,0,0,2.2039,2.2041,2.2056,2.2064,2.2066,2.2073,2.2077,2.2074,2.2097,2.2092,2.2095,2.2097,2.2114,2.2117,2.2117,2.2112,2.2128,2.2128,2.2128,2.2128,2.2091,2.209,0,0,0,0,0,0,2.2035,2.204,2.2055,2.2056,2.2056,2.2073,2.2077,2.2079,2.2097,2.21,2.2096,2.2099,2.2116,2.2117,2.2118,2.2097,2.2128,2.2128,2.2128,2.2092,2.2091,2.209,0,0,0,0,0,0,2.2035,2.2036,2.2054,2.2049,2.2052,2.2072,2.2075,2.2079,2.2081,2.21,2.2104,2.2095,2.2117,2.2118,2.2112,2.2098,2.2128,2.2128,2.2093,2.2092,2.209,2.2055,0,0,0,0,0,0,2.2034,2.2036,2.2031,2.2048,2.2052,2.2048,2.2074,2.2079,2.2082,2.2085,2.21,2.2103,2.2118,2.2111,2.2112,2.2099,2.2128,2.2094,2.2092,2.2091,2.2057,2.2052,2.2048,0,0,0,0,0,2.2033,2.2019,2.203,2.2032,2.2045,2.2047,2.2049,2.2067,2.208,2.2074,2.2086,2.2102,2.21,2.211,2.2111,2.2098,2.2095,2.2093,2.2091,2.2059,2.2053,2.2048,0,0,0,0,0,0,2.1999,2.2022,2.2034,2.2026,2.2034,2.2053,2.2046,2.2061,2.2065,2.2067,2.2089,2.2092,2.2082,2.209,2.2101,2.208,2.21,2.2098,2.2076,2.207,2.2066,2.2063,2.2128,0,0,0,0,0,2.199,2.1991,2.2011,2.2002,2.2006,2.2025,2.2026,2.204,2.2049,2.2052,2.2064,2.2071,2.2071,2.2071,2.2073,2.2059,2.2061,2.205,2.2045,2.2041,2.2039,2.2029,2.2024,2.2082,2.2082,2.2082,0,0,2.1973,2.1986,2.1985,2.1995,2.2003,2.2002,2.2028,2.2026,2.2024,2.2052,2.2046,2.2054,2.2064,2.2052,2.2048,2.2058,2.2023,2.2039,2.2035,2.2035,2.2026,2.2021,2.2016,2.2081,2.2081,2.2081,0,0,2.194,2.195,2.1943,2.195,2.1962,2.1975,2.1973,2.1989,2.1996,2.1991,2.2011,2.2009,2.201,2.2015,2.2018,2.1985,2.2,2.1985,2.1961,2.1951,2.1946,2.1942,2.1929,2.1924,2.1983,2.1983,2.1983,0,2.1916,2.1916,2.1937,2.1933,2.1936,2.1962,2.1953,2.1959,2.197,2.1971,2.1983,2.1984,2.1992,2.1981,2.1973,2.1975,2.1972,2.1983,2.1946,2.1942,2.1938,2.1925,2.1921,2.1981,2.1981,2.1981,2.1981,0,2.1885,2.1884,2.1877,2.1888,2.189,2.1884,2.1902,2.1902,2.1915,2.1925,2.1918,2.1929,2.1933,2.1931,2.1944,2.1922,2.1927,2.1942,2.1962,2.193,2.1919,2.1914,2.1978,2.1979,2.1979,2.198,0,0,2.1831,2.1853,2.1849,2.1854,2.1868,2.1867,2.1861,2.1866,2.1864,2.1871,2.1865,2.1865,2.1878,2.1881,2.1894,2.1886,2.1857,2.1902,2.1902,2.1891,2.183,2.1818,2.1812,2.1867,2.1866,2.1865,2.1829,0,2.1799,2.1792,2.1809,2.1796,2.1795,2.1818,2.1813,2.182,2.183,2.1829,2.1839,2.1838,2.1857,2.1858,2.1852,2.1862,2.1844,2.1865,2.186,2.1859,2.1855,2.1806,2.1794,2.1759,2.1825,2.1824,2.1823,0,2.1762,2.1766,2.1753,2.1767,2.1767,2.1762,2.1766,2.1765,2.1773,2.1781,2.1783,2.1799,2.1792,2.1812,2.1802,2.1815,2.1814,2.1819,2.1818,2.1817,2.1838,2.1802,2.1749,2.1742,2.1817,2.1817,2.1818,0,2.1721,2.1724,2.1716,2.172,2.1736,2.1731,2.1737,2.1747,2.1747,2.175,2.1751,2.1753,2.1753,2.1754,2.1769,2.1782,2.1756,2.1778,2.176,2.176,2.1753,2.1753,2.1696,2.1755,2.1755,2.1755,2.1755,0,2.1683,2.1673,2.1698,2.1693,2.1682,2.1703,2.1691,2.17,2.1707,2.1703,2.1723,2.1718,2.1739,2.1736,2.1748,2.1736,2.1737,2.1741,2.1744,2.1738,2.1737,2.1737,2.1739,2.1753,2.1754,2.1754,2.1754,0,2.1635,2.1652,2.1644,2.166,2.1664,2.1655,2.1668,2.1663,2.1674,2.1668,2.1667,2.1684,2.1681,2.1696,2.1696,2.1704,2.1686,2.1694,2.1683,2.1685,2.1666,2.1667,2.1606,2.1598,2.1663,2.1662,2.1662,0,2.1609,2.1603,2.1617,2.1616,2.1621,2.162,2.162,2.1639,2.1639,2.1647,2.164,2.1639,2.1639,2.1634,2.1645,2.1644,2.1651,2.163,2.1651,2.1645,2.1648,2.1648,2.1646,2.1625,2.1624,2.1623,2.1623,0,2.156,2.1569,2.1569,2.1572,2.1572,2.1576,2.158,2.1578,2.1598,2.1596,2.1594,2.1594,2.1594,2.1592,2.1593,2.1598,2.1613,2.1616,2.1612,2.1605,2.1598,2.16,2.1669,2.1617,2.1618,2.1618,2.1618,2.1618,2.1522,2.1516,2.1525,2.1524,2.153,2.1533,2.1528,2.1539,2.1537,2.1539,2.155,2.1545,2.1551,2.1555,2.1558,2.1554,2.1564,2.1558,2.1556,2.1554,2.1549,2.16,2.1554,2.1554,2.1555,2.1555,2.1555,0,2.1472,2.1479,2.1478,2.1484,2.1483,2.1498,2.1503,2.1501,2.1496,2.1501,2.1501,2.1497,2.1495,2.1506,2.1505,2.1499,2.1505,2.1497,2.1497,2.1498,2.1542,2.1545,2.1492,2.1492,2.1492,2.1492,2.1492,2.1492,2.1446,2.1437,2.1446,2.1438,2.1445,2.1441,2.1442,2.1444,2.1448,2.1443,2.1442,2.1449,2.1456,2.1455,2.1453,2.1456,2.1454,2.1443,2.1448,2.1489,2.1495,2.1501,2.1504,2.1443,2.1443,2.1404,2.1404,2.1404]}]]